Wind_Speed
32 32 39 55 67 78 79 80 76 81 69 72 66 67 63 57 58 59 58 58 56 56 58 51 53 54 55 56 54 54 53 59 60 57 58 60 73 78 81 78 78 82 83 84 81 74 66
27 27 31 42 57 69 76 72 76 80 84 76 75 75 71 64 59 57 58 59 56 55 59 54 54 55 56 56 59 58 52 54 59 55 55 54 56 68 79 84 82 80 84 86 85 77 69
33 30 28 29 46 56 75 81 84 85 84 83 82 84 83 74 72 60 61 61 60 59 61 60 57 57 55 60 58 60 47 54 55 52 51 54 56 61 70 81 86 83 84 89 86 78 71
37 36 34 32 31 42 58 73 86 83 84 81 72 70 76 77 74 71 64 60 61 63 65 63 61 58 57 62 60 56 45 47 51 54 57 60 64 66 69 74 82 90 89 87 85 80 73
41 42 40 41 39 38 40 52 70 83 85 85 86 87 78 73 76 73 69 65 63 68 67 63 62 58 57 65 61 52 50 54 58 60 65 69 70 72 74 73 80 90 89 83 88 83 77
49 46 44 46 46 45 45 45 47 66 77 88 89 88 81 77 74 70 66 66 65 67 65 64 61 58 61 63 58 53 57 61 63 68 69 69 71 72 73 76 72 77 88 87 86 84 80
49 50 50 50 52 53 52 51 51 53 55 70 83 85 87 83 82 73 67 66 68 63 64 64 60 62 62 63 59 61 63 65 66 68 72 78 79 72 73 76 73 79 90 94 88 86 83
56 55 56 56 59 59 59 58 57 58 57 57 68 78 82 79 79 77 75 67 68 62 61 60 63 63 67 64 62 68 67 64 70 73 78 80 76 75 82 77 73 71 88 93 90 87 86
58 61 64 66 68 66 66 65 63 62 61 60 62 67 76 78 76 72 67 65 66 62 61 57 64 68 73 62 66 69 67 75 77 76 79 83 71 78 73 73 66 60 82 89 86 87 82
65 71 74 74 75 76 74 72 71 68 64 63 61 63 69 73 72 66 64 63 63 63 59 57 65 70 68 65 63 71 74 77 74 74 81 73 71 70 65 59 56 59 74 87 83 82 79
79 81 84 83 83 84 85 79 75 73 69 66 60 61 66 67 66 59 61 58 58 65 60 58 65 66 62 65 69 75 75 69 66 69 65 61 62 61 58 52 57 62 81 84 81 86 81
81 80 84 86 89 86 83 82 78 74 71 68 60 60 62 64 57 54 57 53 55 62 59 61 65 57 58 68 73 74 69 59 52 49 46 49 49 47 50 58 66 91 90 95 85 82 81
68 65 70 71 72 73 70 73 75 70 66 65 58 59 59 55 49 51 48 46 56 60 57 61 58 56 62 68 70 66 56 45 35 35 38 35 39 43 48 63 82 86 93 93 89 85 87
60 56 55 58 60 62 62 66 65 63 59 62 56 56 53 44 48 45 41 47 54 51 56 54 54 58 64 64 58 51 36 29 25 24 27 31 35 42 50 61 72 83 89 86 87 88 74
51 47 47 49 50 51 55 58 58 56 56 59 54 52 47 43 43 39 38 48 46 47 49 48 51 56 57 50 39 29 22 18 15 22 28 34 44 55 63 70 82 89 85 78 78 78 75
41 41 42 43 44 44 49 51 52 53 57 55 52 49 48 42 41 36 40 42 40 42 40 41 47 53 41 33 22 17 16 17 21 28 37 53 61 65 75 86 92 89 84 82 85 80 71
37 36 37 37 40 42 44 47 49 54 57 52 50 50 48 41 36 35 37 36 35 32 32 34 42 43 27 14 7 10 20 30 32 40 56 67 72 77 79 84 89 88 88 83 72 75 72
34 34 35 35 38 39 41 46 52 55 52 49 49 51 47 38 36 34 33 30 29 23 23 26 35 34 22 10 2 12 33 44 56 65 68 76 83 87 84 78 80 82 82 81 77 72 70
31 32 32 33 38 40 42 44 48 49 48 50 54 51 43 38 36 31 30 25 21 18 15 19 26 29 23 10 7 28 47 59 64 70 77 78 85 83 81 83 84 82 82 77 74 72 71
29 33 32 34 38 39 40 45 47 49 51 55 56 49 42 38 32 31 26 22 14 12 7 10 18 21 18 3 18 43 54 66 71 77 79 79 82 81 86 86 84 81 80 77 71 69 67
27 30 31 32 37 40 43 48 52 54 56 58 54 50 44 39 32 30 23 19 12 9 4 1 9 11 11 1 21 47 56 65 67 72 79 76 80 88 86 80 74 73 74 67 63 66 64
27 28 33 33 38 42 44 48 54 56 58 59 56 50 45 37 34 28 20 17 12 9 8 6 6 5 6 7 15 22 55 63 69 72 76 77 82 80 77 76 75 72 64 59 61 59 60
24 28 34 33 39 45 49 50 55 59 60 60 57 51 45 38 33 27 21 19 12 13 12 10 10 10 9 9 18 30 35 44 55 58 62 63 63 61 69 74 72 67 61 60 59 59 62
23 31 36 37 43 47 49 56 61 67 67 64 58 51 44 37 34 25 24 22 14 15 14 14 15 14 15 16 16 20 27 34 39 44 47 46 46 48 59 60 58 55 56 58 58 57 58
23 30 34 40 43 46 51 54 60 64 66 64 57 52 44 39 33 25 26 24 18 14 17 17 17 16 15 18 20 23 27 30 32 34 36 40 44 51 55 58 58 57 56 56 56 59 59
24 31 37 40 45 46 50 62 69 71 68 63 57 51 44 39 34 25 31 26 18 17 17 19 18 17 18 18 20 24 26 29 30 33 35 36 39 46 53 57 61 60 58 58 58 59 60
24 31 39 42 46 49 57 66 69 70 67 63 59 52 46 39 34 27 34 29 23 21 18 19 20 20 20 18 17 19 22 26 31 33 34 37 40 44 51 57 61 64 61 60 61 62 61
24 31 43 46 48 53 58 62 70 71 69 63 59 53 48 40 37 27 38 36 29 26 22 19 22 23 21 20 19 16 18 23 24 25 31 33 34 38 44 52 59 60 62 62 64 63 63
23 30 42 46 50 55 62 67 71 73 71 66 61 55 51 42 38 33 30 35 31 29 26 22 21 25 24 21 22 20 20 18 21 23 25 27 30 32 36 42 45 54 60 63 65 66 66
Wind_Direction
321 285 269 252 246 246 247 248 250 255 256 257 262 263 267 268 269 270 269 272 276 277 279 281 281 281 286 290 283 281 275 266 259 250 247 248 241 236 234 233 232 229 227 228 230 233 233
307 314 284 261 254 248 243 247 249 252 255 257 263 264 265 266 270 271 274 272 275 282 281 281 284 283 287 292 284 289 276 258 254 255 255 254 252 245 235 232 232 229 226 227 228 229 231
298 300 295 285 261 254 248 245 251 254 258 260 264 264 269 268 268 270 274 274 276 280 285 281 284 285 289 286 287 291 269 255 255 253 259 257 256 255 244 234 230 229 226 225 227 226 229
285 293 293 285 276 263 253 249 252 254 259 258 257 261 264 273 271 272 272 271 275 280 284 282 284 285 289 289 290 285 266 248 251 253 254 258 257 257 253 240 233 227 227 223 226 224 225
273 279 284 287 283 272 266 259 252 251 254 256 258 261 261 263 270 269 274 268 272 279 284 282 283 287 289 290 289 279 264 258 258 259 260 261 259 259 257 249 238 227 226 223 223 221 222
267 269 272 277 279 277 272 269 263 254 252 251 254 258 260 261 264 266 264 269 274 280 283 281 284 286 290 291 286 273 270 269 269 270 272 271 266 261 256 254 246 237 225 223 221 218 218
264 264 268 270 273 274 273 268 267 267 263 256 253 255 257 261 263 262 267 269 271 278 281 282 285 287 290 291 282 278 276 276 275 276 275 269 264 262 259 253 246 234 221 220 216 216 215
270 268 269 268 270 270 270 270 268 267 267 269 260 254 253 256 261 263 266 266 270 274 277 283 286 288 292 288 283 281 281 278 278 276 271 269 266 265 256 249 242 230 219 219 215 213 212
277 274 277 277 274 271 270 270 270 269 267 268 270 258 253 251 256 259 261 267 268 273 278 283 286 290 291 287 284 284 284 282 278 275 271 264 261 254 251 246 237 219 216 214 213 212 209
283 282 280 276 276 274 271 269 269 268 268 270 269 259 251 249 252 256 259 262 269 274 277 283 286 290 291 289 288 287 284 280 278 272 264 261 256 253 249 241 227 208 204 208 208 212 208
286 281 278 275 275 273 269 267 267 267 268 269 265 255 248 245 248 250 257 262 270 275 281 283 287 292 290 292 290 287 287 282 274 265 262 253 245 239 230 223 214 192 194 197 194 205 206
285 278 273 270 270 266 263 262 263 264 264 264 256 250 246 243 244 247 255 261 271 276 283 289 294 292 294 295 293 290 286 281 270 261 247 238 227 224 217 206 192 186 189 190 195 200 202
284 276 268 263 260 258 256 255 256 258 257 255 247 244 243 241 238 244 254 262 271 279 287 293 296 299 299 296 294 289 287 279 261 245 232 225 212 205 201 194 185 188 186 187 190 194 199
287 279 269 261 257 253 248 246 246 246 247 243 238 238 234 229 234 241 251 262 271 279 288 297 301 302 301 299 293 289 279 260 239 227 208 197 189 183 185 184 182 181 181 184 193 197 195
289 274 263 257 250 245 241 238 236 234 232 233 230 230 223 213 228 238 250 261 273 284 297 302 304 305 308 299 294 276 252 224 202 188 184 175 170 168 169 170 171 173 176 181 193 191 193
284 270 259 252 246 239 235 231 227 224 223 222 222 218 210 210 224 234 249 263 274 291 298 306 310 316 315 305 286 247 201 168 173 178 168 157 157 163 165 165 166 169 171 182 190 189 193
279 263 254 246 237 231 227 222 219 218 218 211 213 204 205 207 219 232 249 261 277 292 301 313 321 327 331 309 295 195 169 150 152 161 157 152 155 156 160 165 171 169 178 186 189 190 193
276 261 248 237 224 221 219 215 213 215 209 203 201 197 200 202 215 232 247 262 279 289 306 325 331 343 350 357 22 176 153 144 147 150 152 153 155 157 160 166 174 178 184 184 189 190 195
271 252 242 233 224 212 210 212 211 206 199 195 192 192 193 198 215 228 242 261 269 288 309 336 345 352 1 12 110 148 144 146 151 152 151 155 157 162 165 174 178 182 187 184 191 193 197
267 247 232 224 219 207 206 207 203 193 190 190 186 188 187 200 212 227 238 257 254 277 311 347 3 3 6 7 141 148 152 154 159 155 157 162 161 167 176 179 184 183 185 189 190 193 200
257 235 218 219 212 207 204 200 193 189 187 185 182 183 188 199 210 224 234 239 235 260 234 19 40 21 34 104 159 160 161 162 165 165 164 167 170 179 180 188 182 186 189 190 191 198 204
254 230 215 208 209 204 198 196 193 185 182 180 178 182 189 196 208 216 230 220 222 230 203 170 115 87 89 120 156 180 167 166 169 172 172 175 181 182 184 185 185 192 192 194 199 203 208
248 220 210 201 204 202 200 195 187 180 179 178 179 183 188 195 205 211 218 212 212 215 199 178 159 149 150 157 160 162 167 177 175 180 183 188 190 190 188 186 188 192 192 199 203 208 214
241 219 209 199 202 201 198 192 182 179 178 180 179 184 187 193 202 208 204 211 200 201 199 186 170 177 181 176 171 171 178 182 186 191 197 200 204 201 193 193 193 198 199 204 209 212 218
239 225 205 201 200 200 197 191 181 180 179 178 179 185 185 193 201 202 199 205 200 196 198 192 179 181 187 194 192 190 188 191 198 206 209 210 207 206 203 198 201 205 207 212 214 217 223
239 225 205 202 198 199 192 188 184 181 180 179 182 183 186 194 197 200 195 202 203 189 196 195 187 190 184 193 200 199 200 202 200 204 207 211 213 212 211 209 209 213 214 217 221 224 227
240 223 207 200 198 194 191 189 186 182 181 181 183 183 186 193 195 194 193 199 199 197 194 196 192 194 191 193 195 198 201 204 206 207 208 209 210 215 215 215 216 218 219 222 226 230 233
241 221 206 202 196 193 193 190 186 184 182 183 185 183 187 193 197 193 199 205 200 196 194 199 200 194 189 192 188 192 198 198 199 207 212 214 215 218 219 221 222 223 225 227 231 234 237
242 226 208 202 199 195 190 192 188 185 183 184 185 185 188 190 195 198 200 203 203 200 198 200 203 204 199 196 196 190 188 184 187 190 198 206 212 217 221 224 227 230 230 231 234 238 241
Height
10575 10572 10572 10576 10581 10587 10591 10595 10600 10605 10608 10612 10613 10617 10619 10622 10621 10621 10621 10620 10618 10615 10615 10615 10613 10610 10609 10609 10602 10604 10600 10591 10591 10597 10599 10601 10606 10614 10625 10632 10638 10653 10663 10669 10677 10688 10702
10570 10568 10566 10566 10569 10573 10577 10582 10586 10590 10592 10596 10600 10602 10606 10609 10609 10609 10608 10607 10606 10604 10602 10602 10599 10598 10597 10596 10584 10585 10583 10579 10578 10583 10587 10591 10593 10596 10605 10613 10622 10632 10645 10655 10660 10678 10692
10562 10560 10560 10558 10558 10560 10564 10566 10571 10575 10579 10581 10585 10587 10590 10595 10597 10597 10595 10595 10594 10591 10588 10588 10586 10585 10586 10573 10573 10568 10569 10565 10569 10572 10575 10578 10579 10581 10587 10594 10605 10618 10627 10635 10651 10671 10684
10552 10550 10549 10549 10549 10549 10551 10553 10556 10559 10563 10566 10569 10572 10574 10578 10580 10583 10583 10583 10581 10580 10576 10574 10573 10572 10572 10557 10557 10551 10554 10554 10555 10558 10561 10561 10563 10566 10570 10576 10585 10594 10606 10626 10643 10658 10674
10540 10539 10537 10537 10536 10538 10538 10539 10541 10543 10545 10550 10552 10555 10559 10563 10565 10567 10570 10570 10568 10566 10564 10562 10560 10558 10557 10541 10541 10540 10540 10540 10541 10543 10543 10543 10546 10549 10552 10559 10565 10579 10601 10619 10622 10645 10658
10527 10526 10525 10524 10524 10524 10524 10525 10525 10527 10528 10532 10535 10538 10543 10548 10551 10553 10554 10557 10554 10554 10550 10547 10547 10544 10539 10528 10525 10524 10524 10523 10524 10524 10524 10522 10522 10527 10536 10540 10559 10569 10580 10599 10613 10632 10644
10512 10511 10510 10510 10510 10509 10509 10510 10511 10511 10512 10513 10516 10518 10526 10531 10535 10538 10541 10543 10540 10543 10540 10534 10534 10525 10522 10513 10509 10506 10505 10505 10503 10503 10499 10494 10494 10515 10520 10521 10530 10539 10558 10576 10594 10612 10628
10490 10492 10492 10492 10491 10492 10492 10493 10493 10494 10495 10496 10497 10499 10507 10515 10518 10523 10525 10526 10527 10529 10531 10526 10514 10510 10502 10495 10492 10487 10484 10483 10479 10479 10470 10469 10483 10493 10483 10492 10503 10521 10543 10563 10579 10596 10614
10471 10468 10465 10467 10468 10469 10471 10472 10474 10476 10477 10479 10479 10482 10488 10497 10503 10508 10510 10512 10511 10514 10518 10518 10500 10492 10479 10483 10475 10465 10462 10456 10453 10452 10444 10436 10461 10446 10458 10469 10483 10505 10527 10550 10577 10587 10608
10451 10445 10443 10443 10443 10444 10446 10449 10453 10455 10458 10461 10462 10466 10472 10480 10489 10494 10496 10498 10498 10499 10503 10503 10487 10476 10465 10462 10458 10443 10439 10427 10427 10422 10409 10413 10426 10424 10434 10449 10467 10492 10516 10536 10567 10585 10605
10425 10421 10416 10415 10415 10418 10419 10424 10429 10434 10439 10442 10445 10449 10456 10466 10474 10482 10484 10486 10488 10485 10486 10485 10474 10462 10450 10440 10432 10418 10408 10399 10395 10389 10385 10392 10393 10397 10407 10432 10451 10485 10497 10530 10549 10569 10591
10395 10391 10385 10385 10384 10388 10391 10398 10405 10412 10420 10423 10428 10434 10442 10453 10463 10470 10472 10476 10478 10473 10472 10466 10455 10444 10435 10419 10405 10392 10382 10373 10369 10364 10365 10367 10373 10385 10400 10416 10436 10453 10479 10508 10540 10562 10579
10360 10357 10351 10352 10355 10358 10366 10374 10382 10390 10400 10405 10413 10420 10430 10442 10454 10459 10464 10468 10467 10462 10459 10452 10438 10428 10415 10400 10383 10367 10361 10355 10351 10352 10353 10359 10366 10376 10390 10404 10420 10445 10471 10501 10526 10545 10566
10331 10328 10325 10326 10330 10335 10342 10349 10359 10369 10381 10388 10398 10408 10420 10434 10442 10450 10456 10460 10458 10457 10449 10438 10425 10412 10396 10379 10364 10353 10347 10344 10346 10348 10351 10358 10367 10378 10394 10411 10436 10458 10482 10506 10527 10546 10575
10309 10304 10303 10304 10309 10315 10321 10330 10340 10351 10362 10372 10385 10398 10411 10428 10433 10443 10449 10450 10451 10447 10438 10427 10414 10398 10379 10360 10349 10342 10340 10342 10344 10348 10353 10358 10370 10379 10397 10418 10438 10459 10484 10512 10528 10548 10561
10291 10288 10286 10288 10292 10299 10306 10315 10326 10336 10346 10360 10376 10389 10403 10419 10427 10437 10441 10444 10443 10439 10430 10420 10405 10388 10367 10350 10343 10340 10340 10342 10344 10349 10357 10363 10376 10390 10406 10421 10440 10465 10488 10501 10519 10542 10562
10275 10272 10272 10276 10280 10285 10294 10305 10315 10324 10336 10350 10367 10382 10397 10412 10421 10430 10434 10437 10437 10433 10425 10415 10400 10383 10362 10351 10346 10344 10343 10342 10350 10357 10364 10375 10393 10414 10430 10445 10453 10469 10485 10506 10531 10544 10558
10261 10260 10260 10263 10268 10276 10286 10295 10303 10313 10329 10344 10361 10377 10391 10405 10416 10423 10428 10430 10431 10427 10422 10413 10399 10382 10365 10356 10353 10353 10348 10349 10359 10370 10378 10392 10409 10423 10438 10453 10466 10478 10496 10509 10524 10543 10557
10250 10249 10250 10255 10261 10266 10275 10285 10296 10309 10325 10339 10354 10371 10385 10399 10409 10417 10422 10425 10425 10423 10418 10412 10403 10388 10373 10367 10365 10362 10360 10366 10374 10385 10395 10408 10420 10433 10444 10453 10464 10480 10494 10511 10526 10541 10551
10240 10239 10242 10247 10252 10260 10269 10278 10289 10304 10318 10334 10351 10367 10381 10393 10404 10411 10415 10419 10419 10419 10416 10413 10407 10398 10385 10383 10381 10376 10375 10381 10385 10392 10402 10413 10426 10437 10446 10456 10469 10487 10497 10509 10524 10539 10551
10228 10230 10234 10241 10247 10253 10260 10270 10283 10297 10312 10330 10348 10363 10377 10388 10398 10405 10409 10413 10415 10415 10415 10415 10412 10409 10400 10398 10396 10392 10389 10393 10401 10405 10410 10421 10428 10435 10450 10465 10478 10489 10499 10514 10529 10539 10551
10220 10223 10228 10234 10242 10250 10257 10270 10281 10292 10312 10328 10344 10358 10370 10384 10392 10399 10403 10408 10411 10412 10413 10415 10415 10415 10411 10409 10411 10412 10403 10407 10412 10417 10422 10428 10432 10447 10459 10472 10482 10492 10507 10522 10532 10543 10551
10215 10218 10222 10229 10237 10244 10251 10262 10277 10294 10312 10326 10339 10352 10366 10378 10386 10393 10398 10404 10407 10409 10411 10414 10416 10418 10418 10419 10420 10425 10430 10431 10432 10434 10438 10444 10453 10462 10469 10478 10487 10498 10512 10522 10532 10542 10547
10209 10213 10218 10225 10233 10239 10249 10259 10271 10287 10302 10319 10334 10349 10362 10374 10380 10388 10394 10399 10403 10407 10408 10412 10416 10417 10420 10420 10425 10431 10436 10439 10443 10448 10451 10457 10464 10473 10481 10491 10501 10508 10514 10520 10529 10539 10544
10205 10208 10216 10220 10229 10236 10246 10260 10278 10295 10304 10318 10331 10345 10358 10368 10376 10383 10390 10396 10400 10404 10406 10409 10413 10417 10419 10423 10425 10429 10434 10439 10445 10449 10455 10462 10470 10475 10483 10493 10500 10505 10513 10520 10526 10531 10538
10201 10204 10211 10217 10224 10233 10248 10260 10269 10283 10301 10317 10330 10342 10354 10363 10371 10379 10386 10392 10398 10401 10405 10408 10412 10415 10419 10422 10425 10428 10432 10436 10442 10447 10453 10459 10466 10475 10482 10491 10496 10502 10510 10515 10520 10526 10532
10196 10200 10206 10212 10221 10231 10243 10256 10271 10286 10301 10313 10326 10339 10350 10359 10366 10374 10382 10387 10394 10399 10402 10406 10408 10413 10417 10421 10425 10428 10431 10435 10439 10444 10448 10453 10460 10466 10475 10484 10491 10494 10504 10510 10515 10518 10524
10191 10197 10203 10210 10217 10227 10239 10255 10267 10281 10295 10310 10323 10335 10345 10355 10363 10369 10376 10382 10388 10394 10399 10404 10407 10411 10415 10419 10423 10426 10429 10433 10437 10443 10447 10453 10458 10464 10470 10477 10483 10493 10499 10505 10508 10514 10519
10186 10190 10199 10206 10213 10222 10236 10251 10265 10277 10290 10305 10319 10330 10341 10350 10359 10366 10371 10379 10385 10390 10395 10401 10405 10408 10413 10417 10421 10425 10429 10432 10436 10439 10443 10448 10453 10459 10465 10471 10479 10485 10490 10495 10500 10506 10511